Location: Beddau
(51.5575°N, 3.3561°W)
Time: 12:06:57
(UTC+00:00)

Okean-O - Pass Details

Date: 03 March 2021
Orbit: 639 x 640 km, 98.2° (Epoch: 16 April)

Event Time Altitude Azimuth Distance (km) Brightness Sun altitude
Rises 18:23:17 0° 151° (SSE) 2,937 5.8 -4.8°
Reaches altitude 10° 18:25:30 10° 147° (SSE) 2,032 4.9 -5.1°
Maximum altitude 18:29:50 56° 70° (ENE) 766 2.7 -5.8°
Drops below altitude 10° 18:34:12 10° 353° (N) 2,047 5.3 -6.5°
Sets 18:36:26 0° 349° (N) 2,961 6.2 -6.8°
